Location: Unspecified
(0.0000°N, 0.0000°E)
Time: 06:34:56
(UTC+00:00)

Courier 1B Rocket - Pass Details

Date: 27 November 2019
Orbit: 920 x 1202 km, 28.2° (Epoch: 10 December)

Event Time Altitude Azimuth Distance (km) Brightness Sun altitude
Rises 08:06:09 0° 247° (WSW) 3,631 7.6 32.0°
Reaches altitude 10° 08:08:51 10° 250° (WSW) 2,655 7.0 32.7°
Maximum altitude 08:15:07 61° 330° (NNW) 1,032 5.4 34.1°
Drops below altitude 10° 08:21:15 10° 50° (NE) 2,601 7.6 35.5°
Sets 08:23:53 0° 53° (NE) 3,552 8.2 36.0°
